This is the latest recevied weather packets stored in our database for station/object XE2VP-WX. If no packets are shown the sender has not sent any weather packets the latest 10 day(s).
| Time | Temp. | Humidity | Pressure | Rain* | Wind** | Luminosity | Snow |
|---|---|---|---|---|---|---|---|
| 1778184475 | 24.44° C | 79% | 944.3 hPa | 3.81 mm | - | 295 W/m² | - |
| 1778184413 | 24.44° C | 79% | 944.3 hPa | 3.56 mm | - | 271 W/m² | - |
| 1778184353 | 24.44° C | 79% | 944.3 hPa | 3.3 mm | - | 212 W/m² | - |
| 1778184293 | 24.44° C | 78% | 944.3 hPa | 3.05 mm | - | 165 W/m² | - |
| 1778184233 | 24.44° C | 78% | 944.3 hPa | 3.05 mm | - | 134 W/m² | - |
| 1778184173 | 24.44° C | 77% | 944.4 hPa | 2.79 mm | - | 116 W/m² | - |
| 1778184113 | 24.44° C | 76% | 944.4 hPa | 2.54 mm | - | 99 W/m² | - |
| 1778184053 | 24.44° C | 77% | 944.4 hPa | 2.29 mm | - | 85 W/m² | - |
| 1778183993 | 24.44° C | 76% | 944.4 hPa | 1.78 mm | - | 75 W/m² | - |
| 1778183933 | 25° C | 76% | 944.5 hPa | 1.78 mm | - | 68 W/m² | - |
| 1778183874 | 25° C | 76% | 944.5 hPa | 1.78 mm | - | 65 W/m² | - |
| 1778183813 | 25° C | 76% | 944.4 hPa | 1.52 mm | - | 67 W/m² | - |
| 1778183753 | 25° C | 76% | 944.3 hPa | 1.52 mm | - | 69 W/m² | - |
| 1778183694 | 25° C | 75% | 944.2 hPa | 1.52 mm | - | 69 W/m² | - |
| 1778183633 | 25° C | 76% | 944.1 hPa | 1.52 mm | - | 67 W/m² | - |
| 1778183574 | 25° C | 75% | 944.2 hPa | 1.52 mm | - | 64 W/m² | - |
| 1778183513 | 25° C | 75% | 944.2 hPa | 1.27 mm | - | 61 W/m² | - |
| 1778183453 | 25° C | 76% | 944.3 hPa | 1.27 mm | - | 58 W/m² | - |
| 1778183394 | 25° C | 76% | 944.2 hPa | 1.27 mm | - | 57 W/m² | - |
| 1778183334 | 25° C | 75% | 944.2 hPa | 1.27 mm | - | 58 W/m² | - |
| 1778183273 | 25° C | 74% | 944.1 hPa | 1.02 mm | - | 62 W/m² | - |
| 1778183213 | 25° C | 74% | 944.1 hPa | 1.02 mm | - | 67 W/m² | - |
| 1778183154 | 25° C | 73% | 944.1 hPa | 1.02 mm | - | 74 W/m² | - |
| 1778183093 | 25° C | 73% | 944.1 hPa | 0.76 mm | - | 83 W/m² | - |
| 1778183032 | 25.56° C | 73% | 944 hPa | 0.76 mm | - | 92 W/m² | - |
* Rain latest hour (hover to see other rain measurements)
** Current wind speed in m/s (hover to see current wind gust speed)